星链-4677 (STARLINK-4677 )

导读

STARLINK-4677是美国于2022年8月28日发射的星链卫星,隶属于SpaceX打造的星链卫星互联网星座项目。星链旨在为全球提供低延迟、高速率的宽带互联网服务,该卫星入轨后,进一步扩充了星链星座的在轨规模,助力覆盖范围与服务能力的提升,推动全球卫星互联网组网进程。

基本信息
目录编号:
53600
目录名称:
STARLINK-4677
国际标识:
2022-104N
轨道中心:
EARTH
卫星名称:
星链-4677
卫星全名:
星链-4677 (STARLINK-4677 )
卫星状态:
在轨 (已飞行1468 天)
发射日期:
2022-08-28 UTC
国别 :
美国 (US)
星等 :
--
轨道信息
数据来源 国际轨道数据 AOE轨道数据
星历时间 2026-09-03T19:04:17+0800
20小时前
查看轨道信息
2026-09-01T01:00:00+0800
3天前
查看轨道信息
半长轴 6837.88km 6837.882km
偏心率 0.0001357 0.0001424
轨道倾角 53.159° 53.158°
近地点辐角 95.321° 93.797°
升交点赤经 155.587° 168.477°
平近点角 264.795° 160.925°
近地点 458.815km 458.771km
远地点 460.671km 460.719km
周期 93.787分钟 93.787分钟
每日圈数 15.353966 15.353961
详细信息
固有亮度:
5
最大亮度:
2.5
卫星平台:
Starlink v1.5
覆盖范围:
全球
运营商:
太空探索技术公司
运营商所在国:
美国
制造商(研发单位):
太空探索技术公司
制造商所在国:
美国
使用方式:
暂无
卫星简介
星链(Starlink)计划是由太空探索技术公司(SpaceX)提出的一个巨型低轨卫星互联网星座项目,计划在2019年至2024年间在太空搭建由约1.2万颗卫星组成的“星链”网络,其中1584颗将部署在地球上空550千米处的近地轨道,并从2020年开始工作。该卫星仍在工作。
2D轨道图
3D轨道图
轨道高度分析图
轨道倾角分析图
轨道综合分析图
查看轨道综合分析图
交会数据列表
事件ID 空间交会对象 最接近时刻(TCA) 交会距离 交会风险概率(CRP) 交会风险指数(CRI) 操作
CDM_260905-021105-360006-600521
2026-09-05T
02:11:45+0000
2.340 km
极远距离
1.760909E-6 低风险 0.4
CDM_260905-111604-742305-360021
OBJECT L (47423)
2026-09-05T
11:16:07+0000
2.590 km
极远距离
1.614247E-6 低风险 0.39
CDM_260904-215805-360006-307121
2026-09-04T
21:58:22+0000
2.004 km
极远距离
1.600361E-6 低风险 0.39
CDM_260905-233804-650605-360021
NETSAT-1 (46506)
2026-09-05T
23:38:11+0000
2.500 km
极远距离
1.598936E-6 低风险 0.39
CDM_260901-174405-360006-608822
2026-09-01T
17:44:49+0000
2.748 km
极远距离
1.333114E-6 低风险 0.37
CDM_260904-212005-360006-028221
2026-09-04T
21:20:03+0000
2.804 km
极远距离
1.281745E-6 低风险 0.37
CDM_260905-003705-360006-172021
2026-09-05T
00:37:39+0000
2.882 km
极远距离
1.253448E-6 低风险 0.37
CDM_260905-223204-308905-360021
2026-09-05T
22:32:48+0000
2.913 km
极远距离
1.218147E-6 低风险 0.37
CDM_260903-221805-360006-489322
OBJECT T (64893)
2026-09-03T
22:18:07+0000
2.646 km
极远距离
1.214425E-6 低风险 0.37
CDM_260902-234005-326305-360021
2026-09-02T
23:40:32+0000
2.945 km
极远距离
7.648899E-7 极低风险 0.33